{"data":{"norad_id":61254,"intl_designator":"2024-175M","name":"STARLINK-11306 [DTC]","alt_names":[],"object_type":"PAYLOAD","status":"ACTIVE","operator":null,"country":"US","launch_date":"2024-09-25","launch_site_code":"AFWTR","launch_vehicle":null,"mission":null,"orbit_class":"UNKNOWN","rcs_meters":null,"size_class":null,"mass_kg":null,"dimensions":null,"purposes":["comms"],"wikipedia_slug":null,"has_3d_model":false,"image_url":null,"decayed_at":null,"tle_current":{"epoch":"2026-09-21T00:30:18.173952Z","epoch_age_seconds":147143,"freshness":"FRESH","line1":"1 61254U 24175M   26264.02104368  .00000087  00000+0  55776-5 0  9990","line2":"2 61254  53.1585 173.4829 0001197  85.4147 274.7007 15.69707373115246","mean_motion":15.69707373,"eccentricity":0.0001197,"inclination_deg":53.1585,"raan_deg":173.4829,"arg_perigee_deg":85.4147,"mean_anomaly_deg":274.7007,"bstar":5.5776e-6,"rev_number":11524,"period_min":91.73684374355,"perigee_km":358.92774470794,"apogee_km":360.54079108947,"semimajor_km":6737.8712678987,"source":"CELESTRAK","updated_at":"2026-09-22T09:00:49.349892Z"}}}